Карточка аэропорта URRP

Внимание!
Информация на этой странице в стадии наполнения.
Если вы не увидели какой-то информации, или заметили неточность - пожалуйста сообщите нам!
Спасибо!
Команда RU-STAFF
Название аэропортаПлатов
Название аэропорта (англ.)Platov
Превышение282 ft. (86 m.)
Координаты47°29.634', 39°55.482'
Высота перехода3500 ft
Эшелон переходаFL50 (QNH >= 996); FL60 (QNH < 996)
Коды ответчика1001-1017
Зона ОрВДРостов-на-Дону РПИ (URRV)
Данные METARURRP 190230Z 34003MPS CAVOK 22/12 Q1009 R23/CLRD70 NOSIG RMK QFE749/0999
Проноз погоды (TAF)URRP 190155Z 1903/2003 32003G12MPS 9999 SCT030CB TX40/1912Z TN24/2002Z BECMG 1906/1908 36003G12MPS TEMPO 1912/2003 6000 -SHRA SCT016 BKN020CB PROB40 TEMPO 1912/2003 -TSRA
NOTAMshow/hide NOTAM
AWOS   TABLE

Информация о ВПП

ВПП Длина ВПП (м.) Покрытие Курс ВПП Частота ILS
233900Цементобетон226110.9
053900Цементобетон46111.5

Диспетчерские позиции

Позывной Наименование органа УВД Частота
URRP_R_APPПлатов - Круг121.2
URRP_GNDПлатов - руление119.0
URRP_TWRПлатов-Вышка119.7
URRP_DELПлатов-деливери127.1
URRP_APPПлатов-подход128.2



Спутниковое изображение